GW1675 Weather Reports


time (UTC)temp
C
wind
direction
speed
KPH
gust
KPH
rain 1hr
cm
rain 24hr
cm
rain mn
cm
humidity
%
barometer
mb
20260507091544 17 98 9.7 19.3 0.00 0.00 0.00 67 1013.2
20260507090038 17 98 8.0 14.5 0.00 0.00 0.00 67 1013.3
20260507084548 17 98 4.8 9.7 0.00 0.00 0.00 67 1013.1
20260507083045 17 98 3.2 8.0 0.00 0.00 0.00 67 1012.9
20260507081544 17 98 3.2 6.4 0.00 0.00 0.00 68 1012.8
20260507080046 17 98 1.6 6.4 0.00 0.00 0.00 68 1012.7
20260507074540 17 98 3.2 4.8 0.00 0.00 0.00 68 1012.6
20260507073049 16 98 0.0 4.8 0.00 0.00 0.00 68 1012.5
20260507071549 15 98 1.6 4.8 0.00 0.00 0.00 68 1012.3
20260507064552 14 98 3.2 6.4 0.00 0.00 0.00 68 1012.1
20260507063044 13 98 0.0 1.6 0.00 0.00 0.00 67 1011.9
20260507061552 12 98 1.6 4.8 0.00 0.00 0.00 67 1012.0
20260507060044 13 98 3.2 4.8 0.00 0.00 0.00 67 1012.0
20260507054559 13 0 0.0 0.0 0.00 0.00 0.00 67 1011.6
20260507053059 13 98 1.6 3.2 0.00 0.00 0.00 67 1011.5
20260507051551 13 98 1.6 6.4 0.00 0.00 0.00 67 1011.4
20260507050050 14 98 1.6 4.8 0.00 0.00 0.00 67 1011.4
20260507044552 14 98 4.8 11.3 0.00 0.00 0.00 67 1011.2
20260507043039 14 98 4.8 9.7 0.00 0.00 0.00 67 1011.3
20260507041558 14 98 3.2 6.4 0.00 0.00 0.00 67 1011.4
20260507040045 14 98 1.6 6.4 0.00 0.00 0.00 67 1011.3
20260507034544 14 98 3.2 8.0 0.00 0.00 0.00 67 1011.3
20260507033053 14 98 4.8 12.9 0.00 0.00 0.00 67 1011.3
20260507031548 15 98 6.4 20.9 0.00 0.00 0.00 67 1011.1
20260507030052 15 98 6.4 17.7 0.00 0.00 0.00 67 1011.0
20260507024549 15 98 9.7 17.7 0.00 0.00 0.00 67 1011.0
20260507023051 15 98 6.4 14.5 0.00 0.00 0.00 67 1011.2
20260507021550 15 98 8.0 16.1 0.00 0.00 0.00 67 1011.1
20260507020106 15 98 6.4 20.9 0.00 0.00 0.00 67 1011.1
20260507014606 15 98 9.7 24.1 0.00 0.00 0.00 67 1011.1
20260507013056 15 96 12.9 25.7 0.00 0.00 0.00 67 1011.1
20260507011555 15 99 12.9 29.0 0.00 0.00 0.00 67 1011.2
20260507010046 15 98 11.3 27.4 0.00 0.00 0.00 67 1011.3
20260507004549 16 96 12.9 30.6 0.00 0.00 0.00 67 1011.4
20260507003038 16 94 12.9 27.4 0.00 0.00 0.00 67 1011.6
20260507001558 16 89 12.9 24.1 0.00 0.00 0.00 67 1011.6
20260507000057 16 87 14.5 29.0 0.00 0.00 0.00 67 1011.6
20260506234604 16 86 9.7 20.9 0.00 0.00 0.00 67 1011.7
20260506233049 16 86 12.9 30.6 0.00 0.00 0.00 67 1011.7
20260506231543 16 87 17.7 35.4 0.00 0.00 0.00 67 1011.9
20260506230100 16 75 14.5 30.6 0.00 0.00 0.00 66 1011.9
20260506224550 16 68 17.7 35.4 0.00 0.00 0.00 66 1012.0
20260506223044 16 94 14.5 27.4 0.00 0.00 0.00 66 1011.9
20260506221601 17 93 16.1 27.4 0.00 0.00 0.00 66 1011.9
20260506220047 17 91 14.5 25.7 0.00 0.00 0.00 66 1011.8
20260506214543 17 92 14.5 24.1 0.00 0.00 0.00 66 1012.0
20260506213054 17 92 14.5 27.4 0.00 0.00 0.00 66 1011.8
20260506211553 17 92 12.9 24.1 0.00 0.00 0.00 66 1011.7
20260506210047 17 92 11.3 25.7 0.00 0.00 0.00 66 1011.4
20260506204546 17 96 11.3 19.3 0.00 0.00 0.00 66 1011.4
20260506203044 18 98 11.3 20.9 0.00 0.00 0.00 66 1011.2
20260506201552 18 98 14.5 27.4 0.00 0.00 0.00 66 1011.3
20260506200047 18 117 11.3 20.9 0.00 0.00 0.00 66 1011.1
20260506194546 19 124 12.9 22.5 0.00 0.00 0.00 66 1010.9
20260506193051 20 162 11.3 22.5 0.00 0.00 0.00 66 1010.8
20260506191545 20 172 9.7 16.1 0.00 0.00 0.00 66 1010.6
20260506190043 20 173 4.8 9.7 0.00 0.00 0.00 66 1010.4
20260506184545 20 173 1.6 3.2 0.00 0.00 0.00 66 1010.3
20260506183051 20 173 4.8 8.0 0.00 0.00 0.00 65 1010.2
20260506181607 20 173 6.4 11.3 0.00 0.00 0.00 64 1010.3
20260506180048 21 173 6.4 19.3 0.00 0.00 0.00 64 1010.3
20260506174545 21 173 14.5 24.1 0.00 0.00 0.00 64 1010.5
20260506173112 21 172 12.9 24.1 0.00 0.00 0.00 65 1010.7
20260506171549 21 172 12.9 22.5 0.00 0.00 0.00 65 1010.7
20260506170052 21 172 16.1 22.5 0.00 0.00 0.00 66 1010.8
20260506164545 21 172 14.5 22.5 0.00 0.00 0.00 66 1010.8
20260506163053 21 172 12.9 24.1 0.00 0.00 0.00 67 1011.0
20260506161547 21 171 9.7 20.9 0.00 0.00 0.00 67 1011.2
20260506160046 21 172 12.9 27.4 0.00 0.00 0.00 67 1011.3
20260506154606 20 174 11.3 25.7 0.00 0.00 0.00 66 1011.5
20260506153046 20 178 14.5 27.4 0.00 0.00 0.00 66 1011.7
20260506151546 19 181 20.9 33.8 0.00 0.00 0.00 66 1012.0
20260506150047 20 180 17.7 32.2 0.00 0.00 0.00 65 1012.2
20260506144551 20 181 16.1 29.0 0.00 0.00 0.00 65 1012.5
20260506143044 19 181 17.7 30.6 0.00 0.00 0.00 65 1012.5
20260506141549 20 169 14.5 29.0 0.00 0.00 0.00 65 1013.0
20260506140048 20 161 17.7 27.4 0.00 0.00 0.00 65 1013.2
20260506134544 20 160 11.3 27.4 0.00 0.00 0.00 65 1013.3
20260506133056 21 153 8.0 22.5 0.00 0.00 0.00 66 1013.4
20260506131545 20 149 11.3 22.5 0.00 0.00 0.00 66 1013.6
20260506130046 20 146 12.9 20.9 0.00 0.00 0.00 66 1013.6
20260506124545 20 141 8.0 20.9 0.00 0.00 0.00 67 1014.0
20260506123047 20 131 9.7 19.3 0.00 0.00 0.00 67 1014.0
20260506121545 20 129 12.9 22.5 0.00 0.00 0.00 67 1014.3
20260506120044 20 127 11.3 22.5 0.00 0.00 0.00 67 1014.4
20260506114548 20 106 9.7 20.9 0.00 0.00 0.00 67 1014.5
20260506113042 19 106 14.5 20.9 0.00 0.00 0.00 67 1014.6
20260506111549 19 105 11.3 20.9 0.00 0.00 0.00 68 1014.8
20260506110047 19 105 12.9 20.9 0.00 0.00 0.00 68 1014.9
20260506104608 19 105 8.0 19.3 0.00 0.00 0.00 68 1014.9
20260506103044 18 105 11.3 17.7 0.00 0.00 0.00 68 1015.0
20260506101548 18 105 8.0 16.1 0.00 0.00 0.00 68 1014.9
20260506100046 20 105 1.6 12.9 0.00 0.00 0.00 69 1014.9
20260506094540 18 105 4.8 17.7 0.00 0.00 0.00 69 1014.9
20260506093045 18 105 6.4 11.3 0.00 0.00 0.00 70 1014.7